Find Kuiper-00245

NORAD ID: 67150 Int'l Des: 2025-301 Owner: KUIP Country: US Constellation: amazon-leo operational
LEOCIRCULAR

Current View

Loading 3D Globe...

About Kuiper-00245

Kuiper-00245 (NORAD 67150) is a amazon-leo constellation satellite launched Dec 16, 2025 by KUIP of US. It operates in LEO, CIRCULAR orbit with a mass of 490.00 kg.

About Kuiper-00245

Description loading...

Upcoming Passes

Passes for default location (London). Set your location on the main map for personalized predictions.

Altitude History

Loading altitude history...

Two-Line Element Set

1 67150U 25301T 26169.69854197 .00002912 00000-0 41079-3 0 9991
2 67150 51.9040 356.4909 0000593 107.9771 252.1256 14.79932504 28440
Epoch: Jun 18, 2026 • Age: 17 hours

Current Status

Altitude 629.6 km
Velocity 7.55 km/s
Sub-Earth Point 20.71°N, 103.67°E
Launch Date Dec 16, 2025
Age 0.5 years
Type internet

Technical Details

Classification Payload
Mass 490.00 kg
Dry Mass 490.00 kg
Total Mass 490.00 kg
Length 1.80 m
Diameter 0.70 m
Span 5.00 m
Shape Box + 2 pan
Manufacturer KUIP
Bus Type Kuiper
Phase Status In Orbit
Owner/State KUIP/US

Most Searched